Location: A O Calhoun Middle School
(33.2198°N, 97.1397°W)
Time: 04:39:15
(UTC+00:00)

H-2A R/B - Pass Details

Date: 05 July 2022
Orbit: 576 x 652 km, 98.5° (Epoch: 17 August)

Event Time Altitude Azimuth Distance (km) Brightness Sun altitude
Rises 03:41:24 0° 354° (N) 2,948 6.4 -20.6°
Reaches altitude 10° 03:44:07 10° 336° (NNW) 2,045 5.8 -21.0°
Maximum altitude 03:47:15 19° 292° (WNW) 1,530 4.8 -21.4°
Drops below altitude 10° 03:50:25 10° 246° (WSW) 2,051 4.9 -21.9°
Sets 03:53:09 0° 229° (SW) 2,960 5.5 -22.2°
